When you browse on this site, cookies collect data to enhance your experience and personalize the content and advertising you see.
Visit our Privacy Policy to learn more. By continuing to use the site, you agree to this use of cookies and data.
  • In Hungary
  • List of Countries
  • For 7 days
  • Water Temperature
  • Satellite Maps
  • Weather Map
  • News
  • Weather Widgets
  • user-avatar
    Login

    Hourly Weather Vidrodzhennya

    Today, 20 July, Saturday

    Time Temperature Precipitation Wind Pressure Humidity
    00:00 +19°C° 0 mm 1 mps 752 mmHg 69%
    01:00 +18°C° 0 mm 1 mps 752 mmHg 71%
    02:00 +18°C° 0 mm 1 mps 752 mmHg 73%
    03:00 +18°C° 0 mm 1 mps 752 mmHg 71%
    04:00 +18°C° 0 mm 1 mps 753 mmHg 70%
    05:00 +19°C° 0 mm 1 mps 753 mmHg 69%
    06:00 +21°C° 0 mm 1 mps 753 mmHg 62%
    07:00 +23°C° 0 mm 1 mps 753 mmHg 55%
    08:00 +25°C° 0 mm 1 mps 753 mmHg 48%
    09:00 +27°C° 0 mm 2 mps 753 mmHg 44%
    10:00 +28°C° 0 mm 2 mps 753 mmHg 40%
    11:00 +29°C° 0 mm 2 mps 753 mmHg 36%
    12:00 +29°C° 0 mm 2 mps 753 mmHg 33%
    13:00 +30°C° 0 mm 2 mps 753 mmHg 31%
    14:00 +30°C° 0 mm 2 mps 753 mmHg 29%
    15:00 +30°C° 0 mm 2 mps 753 mmHg 30%
    16:00 +30°C° 0 mm 3 mps 753 mmHg 32%
    17:00 +30°C° 0 mm 3 mps 753 mmHg 33%
    18:00 +27°C° 0 mm 2 mps 753 mmHg 39%
    19:00 +25°C° 0 mm 2 mps 753 mmHg 45%
    20:00 +23°C° 0 mm 2 mps 753 mmHg 51%
    21:00 +21°C° 0 mm 2 mps 753 mmHg 54%
    22:00 +21°C° 0 mm 2 mps 753 mmHg 56%
    23:00 +20°C° 0 mm 2 mps 753 mmHg 59%

    Tomorrow, 21 July, Sunday

    Time Temperature Precipitation Wind Pressure Humidity
    00:00 +20°C° 0 mm 1 mps 753 mmHg 62%
    01:00 +20°C° 0 mm 1 mps 753 mmHg 64%
    02:00 +20°C° 0 mm 1 mps 753 mmHg 66%
    03:00 +20°C° 0 mm 1 mps 753 mmHg 66%
    04:00 +20°C° 0 mm 1 mps 753 mmHg 67%
    05:00 +20°C° 0 mm 1 mps 753 mmHg 67%
    06:00 +22°C° 0 mm 1 mps 753 mmHg 61%
    07:00 +25°C° 0 mm 1 mps 753 mmHg 54%
    08:00 +27°C° 0 mm 1 mps 753 mmHg 48%
    09:00 +28°C° 0 mm 1 mps 753 mmHg 43%
    10:00 +29°C° 0 mm 1 mps 753 mmHg 38%
    11:00 +30°C° 0 mm 1 mps 753 mmHg 33%
    12:00 +30°C° 0 mm 1 mps 753 mmHg 33%
    13:00 +30°C° 0 mm 1 mps 752 mmHg 33%
    14:00 +30°C° 0 mm 1 mps 752 mmHg 33%
    15:00 +30°C° 0 mm 2 mps 752 mmHg 34%
    16:00 +30°C° 0 mm 2 mps 752 mmHg 35%
    17:00 +30°C° 0 mm 2 mps 752 mmHg 36%
    18:00 +28°C° 0 mm 2 mps 752 mmHg 40%
    19:00 +26°C° 0 mm 2 mps 752 mmHg 45%
    20:00 +24°C° 0 mm 2 mps 752 mmHg 50%
    21:00 +23°C° 0 mm 2 mps 752 mmHg 53%
    22:00 +23°C° 0 mm 1 mps 752 mmHg 55%
    23:00 +22°C° 0 mm 1 mps 752 mmHg 58%

    Day after tomorrow, 22 July, Monday

    Time Temperature Precipitation Wind Pressure Humidity
    00:00 +21°C° 0 mm 1 mps 752 mmHg 59%
    01:00 +21°C° 0 mm 1 mps 752 mmHg 60%
    02:00 +21°C° 0 mm 1 mps 752 mmHg 61%
    03:00 +21°C° 0 mm 1 mps 752 mmHg 62%
    04:00 +21°C° 0 mm 1 mps 752 mmHg 63%
    05:00 +21°C° 0 mm 1 mps 752 mmHg 63%
    06:00 +23°C° 0 mm 1 mps 752 mmHg 57%
    07:00 +25°C° 0 mm 2 mps 752 mmHg 51%
    08:00 +28°C° 0 mm 2 mps 752 mmHg 45%
    09:00 +29°C° 0 mm 2 mps 752 mmHg 42%
    10:00 +30°C° 0 mm 2 mps 751 mmHg 38%
    11:00 +31°C° 0 mm 2 mps 751 mmHg 35%
    12:00 +31°C° 0 mm 3 mps 751 mmHg 35%
    13:00 +31°C° 0 mm 3 mps 751 mmHg 36%
    14:00 +31°C° 0 mm 3 mps 750 mmHg 36%
    15:00 +31°C° 0 mm 2 mps 750 mmHg 38%
    16:00 +31°C° 0 mm 2 mps 750 mmHg 41%
    17:00 +30°C° 0 mm 2 mps 750 mmHg 43%
    18:00 +29°C° 0 mm 2 mps 750 mmHg 47%
    19:00 +27°C° 0 mm 2 mps 750 mmHg 50%
    20:00 +26°C° 0 mm 2 mps 749 mmHg 53%
    21:00 +25°C° 0 mm 2 mps 749 mmHg 56%
    22:00 +25°C° 0 mm 3 mps 749 mmHg 58%
    23:00 +24°C° 0 mm 3 mps 749 mmHg 60%

    23 July, Tuesday

    Time Temperature Precipitation Wind Pressure Humidity
    00:00 +23°C° 0 mm 4 mps 749 mmHg 60%
    01:00 +23°C° 0 mm 4 mps 749 mmHg 60%
    02:00 +22°C° 0 mm 4 mps 749 mmHg 61%
    03:00 +22°C° 0 mm 3 mps 749 mmHg 67%
    04:00 +21°C° 0 mm 2 mps 749 mmHg 72%
    05:00 +21°C° 0 mm 1 mps 748 mmHg 78%
    06:00 +23°C° 0 mm 1 mps 748 mmHg 72%
    07:00 +25°C° 0 mm 2 mps 748 mmHg 66%
    08:00 +26°C° 0 mm 2 mps 748 mmHg 60%
    09:00 +27°C° 0.5 mm 3 mps 748 mmHg 58%
    10:00 +28°C° 0.5 mm 4 mps 748 mmHg 56%
    11:00 +29°C° 0.5 mm 5 mps 748 mmHg 54%
    12:00 +27°C° 0.7 mm 4 mps 748 mmHg 61%
    13:00 +25°C° 0.7 mm 4 mps 748 mmHg 68%
    14:00 +24°C° 0.7 mm 3 mps 748 mmHg 75%
    15:00 +24°C° 0.1 mm 3 mps 748 mmHg 73%
    16:00 +24°C° 0.1 mm 2 mps 748 mmHg 71%
    17:00 +24°C° 0.1 mm 2 mps 748 mmHg 69%
    18:00 +23°C° 0 mm 2 mps 748 mmHg 71%
    19:00 +22°C° 0 mm 1 mps 748 mmHg 74%
    20:00 +22°C° 0 mm 1 mps 748 mmHg 77%
    21:00 +21°C° 0 mm 1 mps 748 mmHg 77%
    22:00 +21°C° 0 mm 1 mps 748 mmHg 77%
    23:00 +21°C° 0 mm 1 mps 748 mmHg 77%

    24 July, Wednesday

    Time Temperature Precipitation Wind Pressure Humidity
    00:00 +21°C° 0 mm 1 mps 748 mmHg 78%
    01:00 +20°C° 0 mm 1 mps 748 mmHg 79%
    02:00 +20°C° 0 mm 1 mps 748 mmHg 79%
    03:00 +20°C° 0 mm 1 mps 748 mmHg 79%
    04:00 +19°C° 0 mm 2 mps 747 mmHg 80%
    05:00 +19°C° 0 mm 2 mps 747 mmHg 80%
    06:00 +20°C° 0 mm 2 mps 748 mmHg 75%
    07:00 +23°C° 0 mm 2 mps 748 mmHg 70%
    08:00 +24°C° 0 mm 3 mps 748 mmHg 65%
    09:00 +24°C° 0.3 mm 3 mps 748 mmHg 64%
    10:00 +25°C° 0.3 mm 4 mps 748 mmHg 63%
    11:00 +26°C° 0.3 mm 4 mps 748 mmHg 62%
    12:00 +25°C° 0.5 mm 4 mps 747 mmHg 64%
    13:00 +25°C° 0.5 mm 3 mps 747 mmHg 67%
    14:00 +24°C° 0.5 mm 3 mps 747 mmHg 69%
    15:00 +24°C° 0.3 mm 3 mps 747 mmHg 72%
    16:00 +22°C° 0.3 mm 3 mps 747 mmHg 76%
    17:00 +22°C° 0.3 mm 4 mps 747 mmHg 79%
    18:00 +21°C° 0 mm 3 mps 747 mmHg 83%
    19:00 +20°C° 0 mm 3 mps 747 mmHg 86%
    20:00 +19°C° 0 mm 2 mps 747 mmHg 90%
    21:00 +19°C° 0.2 mm 3 mps 747 mmHg 92%
    22:00 +19°C° 0.2 mm 3 mps 747 mmHg 94%
    23:00 +19°C° 0.2 mm 3 mps 747 mmHg 96%

    25 July, Thursday

    Time Temperature Precipitation Wind Pressure Humidity
    00:00 +19°C° 1.1 mm 2 mps 747 mmHg 96%
    01:00 +19°C° 1.1 mm 2 mps 746 mmHg 96%
    02:00 +19°C° 1.1 mm 2 mps 746 mmHg 96%
    03:00 +19°C° 2.2 mm 2 mps 746 mmHg 96%
    04:00 +19°C° 2.2 mm 3 mps 746 mmHg 96%
    05:00 +19°C° 2.2 mm 3 mps 745 mmHg 97%
    06:00 +20°C° 0.4 mm 3 mps 745 mmHg 92%
    07:00 +21°C° 0.4 mm 3 mps 745 mmHg 88%
    08:00 +22°C° 0.4 mm 3 mps 746 mmHg 83%
    09:00 +24°C° 0.2 mm 3 mps 745 mmHg 78%
    10:00 +25°C° 0.2 mm 3 mps 745 mmHg 72%
    11:00 +26°C° 0.2 mm 3 mps 745 mmHg 67%
    12:00 +26°C° 1 mm 3 mps 745 mmHg 68%
    13:00 +26°C° 1 mm 4 mps 745 mmHg 68%
    14:00 +27°C° 1 mm 4 mps 745 mmHg 69%
    15:00 +26°C° 1 mm 5 mps 745 mmHg 72%
    16:00 +25°C° 1 mm 5 mps 745 mmHg 76%
    17:00 +23°C° 1 mm 5 mps 745 mmHg 79%
    18:00 +22°C° 0.3 mm 5 mps 746 mmHg 82%
    19:00 +21°C° 0.3 mm 5 mps 746 mmHg 85%
    20:00 +21°C° 0.3 mm 6 mps 746 mmHg 88%
    21:00 +20°C° 0.3 mm 5 mps 746 mmHg 90%
    22:00 +19°C° 0.3 mm 5 mps 746 mmHg 92%
    23:00 +19°C° 0.3 mm 4 mps 747 mmHg 94%
    Show more